Un día en 60 segundosParameter Max Max Time Min Min Time Average Wind Direction 360 15:07 85 8:26 225 Wind Speed 45 10:41 0 0:00 9 Wind Gust 45 10:41 0 0:00 22 In Humidity 62 14:21 46 0:00 55 Humidity 94 14:19 63 16:15 79 In Temp 22.4 0:00 20.9 22:55 21.5 Out Temp 20.3 16:19 14.7 13:55 16.9 Raw Barometer 1013.28 22:59 1006.69 6:31 1009.04 Total Rain 258.00 21:50 248.00 0:00 252.20
9/5/26
Time Wind Dir Wind Spd Wind Gust Hum In Humidity Temp In Temp Raw Barom Tot Rain
° km/hr km/hr % % °C °C mb mm
0:00 252 0 11 46 71 22.4 16.5 1009.29 248.00
0:20 189 0 2 47 71 22.3 16.2 1009.32 248.00
0:40 191 0 0 47 73 22.4 16.2 1009.39 248.00
1:00 249 2 6 47 73 22.3 16.3 1009.22 248.00
1:20 249 0 5 48 73 22.3 16.3 1009.05 248.00
1:40 249 0 0 48 73 22.3 16.2 1008.82 248.00
2:00 249 0 0 48 75 22.3 16.0 1008.75 248.00
2:20 249 0 0 49 75 22.2 16.1 1008.51 248.00
2:40 248 0 0 49 76 22.2 15.7 1008.34 248.00
3:00 248 0 0 49 77 22.1 15.4 1008.14 248.00
3:20 247 0 0 49 77 22.1 15.2 1007.84 248.00
3:40 248 0 0 49 78 22.0 15.0 1007.80 248.00
4:00 248 0 0 49 78 21.9 14.8 1007.60 248.00
4:20 248 0 0 49 79 21.9 15.0 1007.77 248.00
4:40 248 0 0 50 79 21.8 15.1 1007.47 248.00
5:00 248 0 0 50 79 21.8 15.1 1007.33 248.00
5:20 248 0 0 50 80 21.8 15.2 1007.20 248.00
5:40 248 0 0 50 80 21.8 15.3 1007.13 248.00
6:00 194 0 6 51 80 21.7 15.6 1007.26 248.00
6:20 198 0 5 51 81 21.7 15.7 1007.16 248.00
6:40 183 2 10 52 83 21.6 16.2 1006.89 248.00
7:00 225 5 16 53 82 21.5 16.4 1007.03 248.00
7:20 213 10 19 53 83 21.4 16.3 1007.09 248.00
7:40 212 10 23 54 83 21.3 16.0 1007.13 248.00
8:00 223 5 24 55 85 21.2 15.8 1007.13 248.40
8:20 181 16 27 56 84 21.2 15.9 1007.36 248.40
8:40 218 8 32 56 83 21.1 16.2 1007.53 248.40
9:00 179 27 37 56 83 21.1 16.4 1007.63 248.40
9:20 188 13 37 56 83 21.2 16.4 1007.60 248.40
9:40 223 27 39 56 81 21.2 17.0 1007.57 248.40
10:00 148 6 40 56 81 21.3 17.1 1007.47 248.60
10:20 200 13 34 56 81 21.3 17.3 1007.60 248.60
10:40 188 19 39 56 79 21.4 17.8 1007.70 248.60
11:00 199 14 45 58 85 21.3 16.8 1008.07 249.20
11:20 215 24 32 59 90 21.3 17.1 1008.14 249.20
11:40 207 18 31 59 85 21.5 17.4 1008.07 249.20
12:00 200 11 39 59 81 21.5 17.8 1008.04 249.20
12:20 193 5 34 58 78 21.5 18.4 1008.38 249.20
12:40 175 27 37 59 82 21.4 17.7 1008.51 249.40
13:00 215 11 37 60 85 21.3 17.2 1008.18 249.40
13:20 238 10 31 60 89 21.2 15.6 1008.85 252.00
13:40 263 6 23 61 92 21.2 16.4 1008.99 252.00
14:00 204 6 35 60 91 21.1 14.8 1008.89 257.60
14:20 209 6 23 61 94 21.1 16.3 1009.32 257.60
14:40 224 10 23 61 89 21.2 17.2 1009.22 257.60
15:00 248 18 35 60 75 21.3 18.8 1009.29 257.60
15:20 269 14 32 58 72 21.3 19.2 1009.36 257.60
15:40 276 18 32 58 70 21.4 19.6 1009.53 257.60
16:00 246 24 32 56 66 21.4 19.6 1009.60 257.60
16:20 241 18 37 55 65 21.3 20.3 1009.80 257.60
16:40 247 26 32 55 64 21.4 20.2 1009.93 257.60
17:00 235 21 35 54 66 21.4 19.8 1009.97 257.60
17:20 238 13 31 54 67 21.4 19.5 1009.93 257.60
17:40 290 21 34 54 66 21.4 19.7 1009.93 257.60
18:00 250 23 34 54 68 21.4 19.4 1010.14 257.60
18:20 223 14 34 54 68 21.4 19.4 1010.17 257.60
18:40 205 14 32 54 70 21.4 19.1 1010.37 257.60
19:00 230 10 32 55 74 21.4 18.6 1010.64 257.60
19:20 267 14 32 55 70 21.3 19.0 1010.74 257.60
19:40 274 18 31 55 72 21.3 18.3 1010.95 257.60
20:00 266 5 31 55 75 21.2 18.2 1011.15 257.60
20:20 234 3 23 57 83 21.2 17.2 1011.45 257.80
20:40 225 5 24 58 82 21.2 16.4 1011.56 257.80
21:00 213 2 24 57 81 21.1 16.2 1011.79 257.80
21:20 239 0 13 57 83 21.0 15.8 1011.79 257.80
21:40 257 3 6 58 85 20.9 15.8 1012.40 257.80
22:00 223 3 11 58 88 21.0 15.9 1012.60 258.00
22:20 240 2 8 59 90 20.9 16.0 1012.91 258.00
22:40 202 3 11 60 90 20.9 15.8 1013.14 258.00
23:00 211 5 11 60 89 20.9 15.4 1013.25 258.00